Location: Unspecified
(0.0000°N, 0.0000°E)
Time: 08:13:25
(UTC+00:00)

Tiros 1 despin weight - All Passes

Search period start: 18 January 2018 00:00
Search period end: 28 January 2018 00:00
Orbit: 595 x 643 km, 48.2° (Epoch: 17 January)

Date Brightness Start Highest point End Pass type
(mag) Time Alt. Az. Time Alt. Az. Time Alt. Az.
18 Jan - 03:52:09 10° S 03:55:25 20° SE 03:58:41 10° E visible
18 Jan - 05:33:01 10° WSW 05:36:48 27° NW 05:40:36 10° N visible
18 Jan - 15:59:37 10° NNW 16:03:52 34° NE 16:08:06 10° ESE daylight
18 Jan - 17:42:07 10° W 17:45:18 18° SW 17:48:30 10° S daylight
19 Jan - 04:07:54 10° SSW 04:12:13 55° SE 04:16:34 10° NE visible
19 Jan - 05:53:11 10° NW 05:53:41 10° NW 05:54:10 10° NW daylight
19 Jan - 16:15:59 10° NW 16:20:40 85° SW 16:25:20 10° SE daylight
20 Jan - 02:46:06 10° SSE 02:47:35 11° SE 02:49:04 10° ESE night (unlit)
20 Jan - 04:24:45 10° SW 04:29:00 49° NW 04:33:18 10° NNE visible
20 Jan - 14:52:34 10° N 14:56:02 20° NE 14:59:30 10° E daylight
20 Jan - 16:33:20 10° WNW 16:37:28 31° SW 16:41:35 10° SSE daylight
21 Jan - 03:00:32 10° SSW 03:04:27 31° SE 03:08:21 10° ENE night (unlit)
21 Jan - 04:42:49 10° W 04:45:50 18° NW 04:48:52 10° N visible
21 Jan - 15:08:17 10° NNW 15:12:51 54° NE 15:17:25 10° SE daylight
21 Jan - 16:52:34 10° WSW 16:54:20 12° SW 16:56:06 10° SSW daylight
22 Jan - 03:16:49 10° SW 03:21:14 90° S 03:25:39 10° NE night (unlit)
22 Jan - 13:46:23 10° NNE 13:48:10 12° NE 13:49:56 10° ENE daylight
22 Jan - 15:25:04 10° NW 15:29:39 54° SW 15:34:13 10° SSE daylight
23 Jan - 01:53:38 10° S 01:56:38 18° SE 01:59:38 10° E night (unlit)
23 Jan - 03:34:08 10° WSW 03:38:02 31° NW 03:41:56 10° NNE night (unlit)
23 Jan - 14:00:54 10° NNW 14:05:02 31° NE 14:09:10 10° ESE daylight
23 Jan - 15:42:59 10° W 15:46:28 21° SW 15:49:56 10° S daylight
24 Jan - 02:09:12 10° SSW 02:13:28 48° SE 02:17:43 10° NE night (unlit)
24 Jan - 03:53:24 10° WNW 03:54:53 11° NW 03:56:22 10° NNW night (unlit)
24 Jan - 14:17:08 10° NW 14:21:50 85° NE 14:26:32 10° SE daylight
25 Jan - 00:48:38 10° SE 00:48:47 10° SE 00:48:57 10° SE night (unlit)
25 Jan - 02:25:56 10° SW 02:30:15 56° NW 02:34:34 10° NNE night (unlit)
25 Jan - 12:53:58 10° N 12:57:11 18° NE 13:00:25 10° E daylight
25 Jan - 14:34:21 10° WNW 14:38:37 35° SW 14:42:54 10° SSE daylight
26 Jan - 01:01:54 10° S 01:05:40 27° SE 01:09:25 10° ENE night (unlit)
26 Jan - 02:43:49 10° W 02:47:03 20° NW 02:50:18 10° N night (unlit)
26 Jan - 13:09:30 10° NNW 13:14:01 47° NE 13:18:31 10° SE daylight
26 Jan - 14:53:08 10° W 14:55:29 14° SW 14:57:50 10° SSW daylight
27 Jan - 01:18:03 10° SW 01:22:29 79° SE 01:26:52 10° NE night (unlit)
27 Jan - 11:48:25 10° NE 11:49:18 10° NE 11:50:12 10° ENE daylight
27 Jan - 13:26:10 10° NW 13:30:47 61° SW 13:35:26 10° SSE daylight
